Погода в Архипелаге Лос-Рокес

Венесуэла     11°50′05″N   66°33′58″W
темп.,
°C
ветер,
м/с
пор.,
м/с
влажн.,
%
обл.,
%
осадки,
мм/ч
давл.,
гПа
погр.,
м
10 мая, пн
пн1023:00+27всв101385100 0.4 1015742
02:00+26в91387100 1.4 1014816
05:00+26в101387100 1.1 1014729
08:00+26в9128699 1.9 1015716
11:00+26в91286100 1.4 1015823
14:00+26в8118576 1.5 1013883
17:00+26в912875 0.0 1011817
20:00+26всв1113875 0.0 1013743
11 мая, вт
вт1123:00+27всв1215865 0.0 1014830
02:00+26в1113875 0.0 1013905
05:00+26в1013865 0.0 1013898
08:00+26в10138589 0.1 1014977
11:00+26в9128416 0.1 10151035
14:00+26в91284100 0.1 1013953
17:00+26всв10128695 0.0 1012787
20:00+26всв101387100 0.0 1013783
12 мая, ср
ср1223:00+26всв101283100 0.1 1015826
02:00+26в101286100 0.1 1013762
05:00+26в10138616 0.2 1013838
08:00+26в1012855 0.3 1015773
11:00+26в911845 0.0 1015911
14:00+26в9128446 0.1 1013932
17:00+26в9128499 0.0 1012762
20:00+26всв9128498 0.0 1013653
13 мая, чт
чт1323:00+26всв1013858 0.0 1014775
02:00+26в1112855 0.0 1013755
05:00+26в91283100 0.0 1013771
08:00+26в912845 0.0 1015828
11:00+26в912845 0.0 1015830
14:00+27в911831 0.0 1013795
17:00+26в910821 0.0 1011701
20:00+26всв1012845 0.0 1012702
14 мая, пт
пт1423:00+27в1013855 0.0 1013715
02:00+26в1012865 0.0 1012652
05:00+26в1012885 0.0 1013743
08:00+26в9118611 0.0 1014785
11:00+26в9128550 0.0 1015784
14:00+27в9118499 0.0 1013739
17:00+26в10128597 0.0 1011625
20:00+27всв11138671 0.0 1012578